Bangor, ME

8:52 PM EST on February 06, 2016 (GMT -0500)
Bangor International

Weather History for KBGR - February, 2012

Change the Weather History Date:

Sunday, February 26, 2012

  Actual Average Record
Temperature  
Mean Temperature 24 °F 24 °F  
Max Temperature 30 °F 34 °F 51 °F (1931)
Min Temperature 18 °F 14 °F -15 °F (1929)
Degree Days  
Heating Degree Days 41 41  
Month to date heating degree days 993 1157  
Since 1 July heating degree days 4702 5564  
Cooling Degree Days 0 0  
Month to date cooling degree days 0 0  
Year to date cooling degree days 0 0  
Moisture  
Dew Point 8 °F    
Average Humidity 52    
Maximum Humidity 68    
Minimum Humidity 36    
Precipitation  
Precipitation 0.00 in 0.09 in 1.26 in (1961)
Month to date precipitation 1.51 2.32  
Year to date precipitation 3.46 5.21  
Snow  
Snow 0.00 in 0.40 in 13.20 in (1972)
Month to date snowfall 6.1 13.7  
Since 1 July snowfall 40.4 49.7  
Snow Depth 4.00 in    
Sea Level Pressure  
Sea Level Pressure 30.06 in    
Wind  
Wind Speed 14 mph (NW)    
Max Wind Speed 30 mph    
Max Gust Speed 45 mph    
Visibility 10 miles    
Events      
T = Trace of Precipitation, MM = Missing Value Source: NWS Daily Summary

Daily Weather History Graph

Daily Weather History Graph

Search for Another Location

Airport or City:

Trip Planner

Search our weather history database for the weather conditions in past years. The results will help you decide how hot, cold, wet, or windy it might be!

Date:

Astronomy

Feb. 26, 2012 Rise Set
Actual Time 6:19 AM EST 5:18 PM EST
Civil Twilight 5:49 AM EST 5:47 PM EST
Nautical Twilight 5:15 AM EST 6:21 PM EST
Astronomical Twilight 4:41 AM EST 6:55 PM EST
Moon 7:57 AM EST (2/26) 10:28 PM EST (2/26)
Length of Visible Light 11h 58m
Length of Day
10h 59m
Waxing Crescent, 20% of the Moon is Illuminated
Feb 26
Waxing Crescent
Feb 29
First Quarter
Mar 8
Full
Mar 14
Last Quarter
Mar 22
New

Hourly Weather History & Observations

Time (EST) Temp. Windchill Dew Point Humidity Pressure Visibility Wind Dir Wind Speed Gust Speed Precip Events Conditions
12:53 AM 28.0 °F 18.6 °F 17.1 °F 63% 29.56 in 10.0 mi WNW 10.4 mph 18.4 mph N/A   Partly Cloudy
1:53 AM 27.0 °F 18.7 °F 17.1 °F 66% 29.61 in 10.0 mi WNW 8.1 mph - N/A   Scattered Clouds
2:53 AM 26.1 °F 16.8 °F 15.1 °F 63% 29.66 in 10.0 mi WNW 9.2 mph 17.3 mph N/A   Clear
3:53 AM 25.0 °F 14.8 °F 12.9 °F 60% 29.72 in 10.0 mi WNW 10.4 mph 23.0 mph N/A   Clear
4:53 AM 24.1 °F 11.0 °F 12.0 °F 60% 29.78 in 10.0 mi WNW 16.1 mph 44.9 mph N/A   Clear
5:53 AM 21.9 °F 8.7 °F 9.0 °F 58% 29.84 in 10.0 mi WNW 15.0 mph 25.3 mph N/A   Mostly Cloudy
6:53 AM 19.9 °F 5.7 °F 7.0 °F 57% 29.91 in 10.0 mi NW 16.1 mph 25.3 mph N/A   Mostly Cloudy
7:53 AM 19.4 °F 3.6 °F 8.6 °F 63% 29.95 in 10.0 mi NW 19.6 mph 26.5 mph N/A   Mostly Cloudy
8:53 AM 21.0 °F 8.6 °F 7.0 °F 55% 30.01 in 10.0 mi WNW 12.7 mph 23.0 mph N/A   Scattered Clouds
9:53 AM 21.9 °F 5.1 °F 7.0 °F 53% 30.04 in 10.0 mi NW 25.3 mph 29.9 mph N/A   Scattered Clouds
10:53 AM 24.1 °F 9.8 °F 7.0 °F 48% 30.05 in 10.0 mi NW 19.6 mph 27.6 mph N/A   Partly Cloudy
11:53 AM 26.1 °F 10.4 °F 9.0 °F 49% 30.06 in 10.0 mi NNW 26.5 mph 34.5 mph N/A   Partly Cloudy
12:53 PM 28.9 °F 16.1 °F 7.0 °F 40% 30.09 in 10.0 mi NW 19.6 mph 29.9 mph N/A   Clear
1:53 PM 30.0 °F 17.9 °F 7.0 °F 38% 30.10 in 10.0 mi NW 18.4 mph 29.9 mph N/A   Clear
2:53 PM 30.0 °F 17.9 °F 6.1 °F 36% 30.13 in 10.0 mi NW 18.4 mph 28.8 mph N/A   Clear
3:53 PM 28.9 °F 17.7 °F 8.1 °F 41% 30.17 in 10.0 mi NW 15.0 mph 28.8 mph N/A   Clear
4:53 PM 28.0 °F 17.0 °F 7.0 °F 41% 30.23 in 10.0 mi NW 13.8 mph 19.6 mph N/A   Clear
5:53 PM 26.1 °F 16.8 °F 7.0 °F 44% 30.27 in 10.0 mi NW 9.2 mph - N/A   Partly Cloudy
6:53 PM 24.1 °F 11.5 °F 5.0 °F 44% 30.31 in 10.0 mi NW 15.0 mph 19.6 mph N/A   Partly Cloudy
7:53 PM 21.0 °F 8.1 °F 5.0 °F 50% 30.36 in 10.0 mi NW 13.8 mph - N/A   Partly Cloudy
8:53 PM 19.9 °F 6.2 °F 3.9 °F 50% 30.39 in 10.0 mi NW 15.0 mph - N/A   Scattered Clouds
9:53 PM 19.0 °F 9.0 °F 3.0 °F 50% 30.40 in 10.0 mi WNW 8.1 mph - N/A   Scattered Clouds
10:53 PM 18.0 °F 7.7 °F 3.9 °F 54% 30.41 in 10.0 mi West 8.1 mph - N/A   Scattered Clouds
11:53 PM 18.0 °F 8.7 °F 3.9 °F 54% 30.40 in 10.0 mi WNW 6.9 mph - N/A   Mostly Cloudy